Regional Weather Roundup
Issued by NWS

Home | Current Version | Previous Version | Graphics & Text | Print | Product List | Glossary On
Versions: 1 2 3 4 5 6 7 8 9 10 11 12 13 14 15 16 17 18 19 20 21 22 23 24 25 26 27 28 29 30 31 32 33 34 35 36 37 38 39 40 41 42 43 44 45 46 47 48 49 50
000
ASUS45 KABQ 290201
RWRNM
NEW MEXICO REGIONAL WEATHER ROUNDUP
NATIONAL WEATHER SERVICE ALBUQUERQUE NM
800 PM MDT TUE JUL 28 2015

NOTE: "FAIR" MEANS FEW OR NO CLOUDS BELOW 12,000 FEET AGL WITH NO
       SIGNIFICANT WEATHER OR OBSTRUCTIONS TO VISION.

      THIS PRODUCT IS RELEASED AS TWO VERSIONS.  ONE VERSION NEAR
      THE TOP OF THE HOUR CONTAINING PRELIMINARY DATA FROM ALBUQUERQUE
      AND OTHER STATIONS.  A FINAL VERSION WITH ADDITIONAL DATA IS
      ISSUED ABOUT 10 MINUTES AFTER THE HOUR.

NMZ501-503-504-510>518-290300-
NORTHWEST PLATEAU/NORTHCENTRAL MOUNTAINS

CITY           SKY/WX    TMP DP  RH WIND       PRES   REMARKS
FARMINGTON     CLEAR     87  17   7 NW9       30.08S
SANTA FE       CLOUDY    73  50  44 SE22G31   30.22R
TAOS           CLOUDY    66  46  48 E15G33    30.30R
ANGEL FIRE     CLOUDY    61  49  63 S5        30.43R

$$
NMZ402-403-502-505>509-290300-
WESTCENTRAL MOUNTAINS/SOUTHWEST MOUNTAINS

CITY           SKY/WX    TMP DP  RH WIND       PRES   REMARKS
GALLUP         CLOUDY    78  45  30 S10       30.19R
SILVER CITY      N/A     81  52  36 NE10      30.14R

$$
NMZ407-409-411-412-290300-
SOUTHERN DESERTS

CITY           SKY/WX    TMP DP  RH WIND       PRES   REMARKS
DEMING         MOCLDY    82  56  40 NE18G28   30.04R
HOLLOMAN AFB   LGT RAIN  77  57  50 NE20G33   30.01F
ALAMOGORDO     CLOUDY    73  63  68 NE17      30.04F
T OR C         CLOUDY    73  60  63 N10G18    30.10R

$$
NMZ519>523-290300-
CENTRAL VALLEYS/CENTRAL HIGHLANDS

CITY           SKY/WX    TMP DP  RH WIND       PRES   REMARKS
ALBUQUERQUE    LGT RAIN  84  48  28 S15       30.13R
DOUBLE EAGLE   CLOUDY    81  48  32 SW9       30.14R
MORIARTY ARPT    N/A     70  52  52 CALM      30.25R
CLINES CORNERS CLOUDY    63  55  75 E16       30.30R
BELEN          MOCLDY    82  48  30 S13G23    30.12R
SOCORRO        NOT AVBL

$$
NMZ524>526-539-540-290300-
SOUTHCENTRAL MOUNTAINS

CITY           SKY/WX    TMP DP  RH WIND       PRES   REMARKS
RUIDOSO          N/A    N/A N/A N/A MISG        N/A

$$
NMZ527>531-290300-
NORTHEAST HIGHLANDS/NORTHEAST PLAINS

CITY           SKY/WX    TMP DP  RH WIND       PRES   REMARKS
LAS VEGAS      CLOUDY    62  57  83 N5        30.34R
RATON          CLOUDY    71  47  42 S12       30.26R
CLAYTON        LGT RAIN  69  60  73 W5        30.18R

$$
NMZ532>537-290300-
EASTCENTRAL PLAINS

CITY           SKY/WX    TMP DP  RH WIND       PRES   REMARKS
TUCUMCARI      LGT RAIN  70  66  87 S3        30.19R
CANNON AFB     LGT RAIN  68  66  94 N21G26    30.13F
CLOVIS AIRPORT CLOUDY    66  63  88 N20       30.16R

$$
NMZ028-029-538-290300-
SOUTHEAST PLAINS

CITY           SKY/WX    TMP DP  RH WIND       PRES   REMARKS
ROSWELL        MOCLDY    81  61  50 N12       30.01R
ARTESIA        MOCLDY    84  59  42 NE13      30.00R
CARLSBAD       PTCLDY    86  59  39 NE17      29.96R THUNDER
HOBBS          PTCLDY    91  52  25 NW12G17   30.01R


$$


USA.gov is the U.S. government's official web portal to all federal, state and local government web resources and services.